Skip Navigation Links weather.gov 
NOAA logo-Select to go to the NOAA homepage NDBC Title GraphicClick to go to NDBC home page   Select to go to the NWS homepage
Home About Us Contact Us
 
 
    
    Station List

 Data Access
    Mobile Access
    Classic Maps
         Recent
         DART®
    Obs Search
    Ship Obs Report
    BuoyCAMs
    TAO
    DODS
    OceanSITES
    HF Radar
    OSMC
    Dial-A-Buoy
    RSS Feeds Image indicating link to RSS feed access page
    Web Widget
    Email Access
    Web Data Guide
    Maintenance Schedule
    Station Status Report

 Program Info
    TAO
    DART®
    IOOS®

 Publications
    NDBC PEA
    NDBC FONSI
    NDBC DQC Handbook

 FAQ
 Visitor Information
 
USA.gov is the U.S. government's official web portal to all federal, state and local government web resources and services.

Station PPXC1 - 9414847 - Point Potrero, Richmond, CA Image indicating link to RSS feed of recent meteorological observations for station PPXC1

Large icon indicates selected station.
yellow diamond Stations with recent data
red diamond Stations with no data in last 8 hours
     (24 hours for tsunami stations)


Conditions at PPXC1 as of
(3:18 pm PST)
2318 GMT on 02/21/2019:
     

Click on the graph icon in the table below to see a time series plot of the last five days of that observation.

5-day plot - Wind Direction Wind Direction (WDIR): NNE ( 30 deg true )
5-day plot - Wind Speed Wind Speed (WSPD): 20 kts
5-day plot - Wind Gust Wind Gust (GST): 28 kts
5-day plot - Atmospheric Pressure Atmospheric Pressure (PRES): 29.75 in
5-day plot - Air Temperature Air Temperature (ATMP): 55.9 °F
5-day plot - Wind Speed at 10 Meters Wind Speed at 10 meters (WSPD10M): 19 kts
5-day plot - Wind Speed at 10 Meters Wind Speed at 20 meters (WSPD20M): 21 kts
5-day plot - Wind Speed, Wind Gust and Atmospheric Pressure Combined plot of Wind Speed, Gust, and Air Pressure
NOS Water Level Observation Network Water Level
Previous observations
5-day plot - Wind Direction 5-day plot - Wind Speed 5-day plot - Wind Gust 5-day plot - Wave Height 5-day plot - Dominant Wave Period 5-day plot - Average Period 5-day plot - Mean Wave Direction 5-day plot - Atmospheric Pressure 5-day plot - Pressure Tendency 5-day plot - Air Temperature 5-day plot - Water Temperature 5-day plot - Dew Point 5-day plot - Salinity 5-day plot - Visibility 5-day plot - Tide (above MLLW)
MM DD TIME
(PST)
WDIR WSPD
kts
GST
kts
WVHT
ft
DPD
sec
APD
sec
MWD PRES
in
PTDY
in
ATMP
°F
WTMP
°F
DEWP
°F
SAL
psu
VIS
nmi
TIDE
ft
0221 3:06 pm N 15 25----29.76- 55.9-----
0221 3:00 pmNNE 14 21----29.75+0.00 55.9-----
0221 2:54 pm N 14 22----29.75- 56.1-----
0221 2:48 pmNNE 16 21----29.75- 55.9-----
0221 2:42 pm N 12 17----29.75- 56.7-----
0221 2:36 pm N 11 18----29.75- 55.9-----
0221 2:30 pm N 11 18----29.75- 56.1-----
0221 2:24 pm N 12 20----29.75- 55.4-----
0221 2:18 pmNNE 9 18----29.76- 55.8-----
0221 2:12 pm N 9 14----29.76- 55.9-----
0221 2:06 pm N 9 16----29.76- 55.6-----
0221 2:00 pmNNE 12 18----29.76-0.01 55.6-----
0221 1:54 pmNNE 14 18----29.75- 54.9-----
0221 1:48 pm N 12 18----29.76- 55.8-----
0221 1:42 pmNNW 10 16----29.76- 56.3-----
0221 1:36 pm N 12 18----29.76- 55.4-----
0221 1:30 pm N 13 19----29.76- 55.2-----
0221 1:24 pmNNW 15 21----29.76- 55.0-----
0221 1:18 pmNNE 11 21----29.75- 54.9-----
0221 1:12 pm N 14 20----29.75- 55.6-----
0221 1:06 pm N 12 25----29.75- 54.7-----
0221 1:00 pmNNE 18 24----29.75-0.01 54.3-----
022112:54 pmNNE 12 22----29.75- 55.0-----
022112:48 pm N 13 22----29.76- 54.5-----
022112:42 pmNNE 12 19----29.76- 54.3-----
022112:36 pm N 14 21----29.76- 54.5-----
022112:30 pm N 13 20----29.76- 54.1-----
022112:24 pmNNW 9 15----29.76- 54.5-----
022112:18 pmNNW 9 17----29.76- 54.0-----
022112:12 pmNNW 10 17----29.76- 53.6-----
022112:06 pm NW 11 15----29.76- 53.2-----
022112:00 pm NW 11 17----29.76-0.01 53.4-----
022111:54 amNNW 10 15----29.77- 52.9-----
022111:48 amNNW 12 15----29.77- 52.7-----
022111:42 am N 11 16----29.77- 52.5-----
022111:36 amNNW 13 16----29.77- 51.6-----
022111:30 am N 14 18----29.77- 51.8-----
022111:24 am N 12 19----29.77- 51.8-----
022111:18 am N 10 17----29.77- 52.0-----
022111:12 amNNW 12 18----29.77- 51.4-----
022111:06 am N 10 16----29.77- 51.4-----
022111:00 amNNW 11 16----29.77+0.00 50.9-----
022110:54 am N 11 15----29.77- 50.5-----
022110:48 am N 10 15----29.77- 50.4-----
022110:42 amNNW 12 16----29.77- 50.2-----
022110:36 am N 8 15----29.77- 50.5-----
022110:30 amNNW 12 17----29.77- 49.5-----
022110:24 am N 11 15----29.77- 49.5-----
022110:18 am N 9 15----29.77- 49.3-----
022110:12 amNNW 9 13----29.77- 49.3-----
022110:06 am N 11 16----29.77- 48.4-----
022110:00 amNNW 11 16----29.77+0.02 48.9-----
0221 9:54 amNNW 10 16----29.77- 48.4-----
0221 9:48 amNNW 12 16----29.77- 47.8-----
0221 9:42 amNNW 12 15----29.77- 48.2-----
0221 9:36 am N 9 14----29.77- 48.4-----
0221 9:30 amNNW 10 15----29.77- 47.7-----
0221 9:24 am N 11 16----29.77- 47.3-----
0221 9:18 amNNW 13 17----29.77- 46.9-----
0221 9:12 am N 10 14----29.77- 46.9-----
0221 9:06 am N 12 15----29.77- 46.4-----
0221 9:00 amNNW 13 18----29.77+0.03 46.4-----
0221 8:54 am N 12 17----29.77- 46.4-----
0221 8:48 am N 12 18----29.77- 46.2-----
0221 8:42 am N 11 14----29.77- 46.2-----
0221 8:36 am N 10 16----29.77- 46.0-----
0221 8:30 am N 11 15----29.77- 45.7-----
0221 8:24 am N 12 15----29.77- 45.7-----
0221 8:18 amNNW 9 11----29.77- 45.9-----
0221 8:12 am NW 6 8----29.77- 46.2-----
0221 8:06 am NW 7 10----29.76- 45.9-----
0221 8:00 am NW 5 7----29.76+0.04 45.7-----
0221 7:54 am NW 5 9----29.76- 45.5-----
0221 7:48 amNNW 5 8----29.76- 45.0-----
0221 7:42 amNNW 6 11----29.76- 44.8-----
0221 7:36 am N 5 10----29.76- 44.6-----
0221 7:30 am N 5 10----29.76- 44.2-----
0221 7:24 amNNW 5 8----29.76- 44.1-----
0221 7:18 am N 7 11----29.75- 44.1-----
0221 7:12 amNNW 6 9----29.75- 43.7-----
0221 7:06 amNNW 7 10----29.75- 43.7-----
0221 7:00 amNNW 8 13----29.75+0.03 43.7-----
0221 6:54 amNNW 8 10----29.75- 43.9-----
0221 6:48 amNNW 8 10----29.75- 43.9-----
0221 6:42 am N 9 12----29.74- 43.9-----
0221 6:36 am N 9 12----29.74- 43.9-----
0221 6:30 am N 7 12----29.74- 43.9-----
0221 6:24 am N 8 11----29.74- 44.1-----
0221 6:18 am N 8 12----29.74- 44.1-----
0221 6:12 am N 9 14----29.74- 43.9-----
0221 6:06 am N 9 13----29.74- 43.9-----
0221 6:00 am N 9 14----29.74+0.02 43.9-----
0221 5:54 am N 8 11----29.74- 43.5-----
0221 5:48 am N 9 12----29.74- 43.5-----
0221 5:42 am N 7 11----29.74- 43.5-----
0221 5:36 am N 8 12----29.74- 43.5-----
0221 5:30 am N 8 12----29.74- 43.7-----
0221 5:24 am N 10 14----29.74- 43.7-----
0221 5:18 am N 9 12----29.73- 43.7-----
0221 5:12 am N 8 12----29.73- 43.7-----
0221 5:06 am N 9 12----29.73- 43.7-----
0221 5:00 am N 10 14----29.73+0.00 43.9-----
0221 4:54 am N 9 14----29.72- 43.9-----
0221 4:48 am N 10 15----29.72- 44.1-----
0221 4:42 am N 10 14----29.72- 44.2-----
0221 4:36 am N 10 15----29.72- 44.2-----
0221 4:30 am N 8 12----29.72- 44.4-----
0221 4:24 am N 6 16----29.72- 44.8-----
0221 4:18 am N 12 18----29.72- 45.0-----
0221 4:12 am N 9 17----29.72- 45.0-----
0221 4:06 am N 12 17----29.72- 45.1-----
0221 4:00 am N 10 16----29.72-0.01 45.3-----
0221 3:54 am N 9 12----29.72- 45.5-----
0221 3:48 am N 9 14----29.72- 45.7-----
0221 3:42 am N 9 14----29.72- 45.9-----
0221 3:36 am N 12 18----29.72- 46.2-----
0221 3:30 amNNW 13 17----29.72- 46.4-----
0221 3:24 amNNW 10 15----29.72- 46.2-----
0221 3:18 am N 12 17----29.72- 46.4-----
0221 3:12 am N 12 17----29.72- 46.6-----
0221 3:06 am N 12 18----29.72- 46.6-----
0221 3:00 amNNW 12 18----29.72-0.02 46.8-----
0221 2:54 am NW 10 16----29.72- 46.8-----
0221 2:48 am NW 12 15----29.72- 46.8-----
0221 2:42 amNNW 12 17----29.72- 46.9-----
0221 2:36 am NW 9 17----29.72- 46.9-----
0221 2:30 am NW 9 13----29.72- 46.9-----
0221 2:24 am NW 10 14----29.72- 46.9-----
0221 2:18 am NW 9 13----29.72- 47.1-----
0221 2:12 am NW 12 17----29.72- 47.3-----
0221 2:06 am NW 11 20----29.72- 47.3-----
0221 2:00 amNNW 13 19----29.73-0.03 47.5-----
0221 1:54 amNNW 12 17----29.73- 47.5-----
0221 1:48 amNNW 12 17----29.73- 47.5-----
0221 1:42 am NW 8 12----29.73- 47.5-----
0221 1:36 am NW 11 17----29.73- 47.5-----
0221 1:30 amNNW 12 20----29.73- 47.5-----
0221 1:24 amNNW 15 19----29.73- 47.5-----
0221 1:18 amNNW 13 19----29.73- 47.5-----
0221 1:12 amNNW 14 20----29.73- 47.7-----
0221 1:06 amNNW 12 20----29.73- 47.5-----
0221 1:00 am NW 9 16----29.73-0.03 47.3-----
022112:54 am NW 9 14----29.73- 47.3-----
022112:48 am NW 8 12----29.74- 47.1-----
022112:42 am NW 8 14----29.74- 47.3-----
022112:36 am NW 9 14----29.74- 47.5-----
022112:30 am NW 9 13----29.73- 47.5-----
022112:18 am NW 6 12----29.74- 47.7-----
022112:12 am NW 9 15----29.74- 47.8-----
022112:06 am NW 9 14----29.74- 47.8-----
022112:00 am NW 10 14----29.74-0.03 48.0-----
022011:54 pm NW 10 16----29.74- 48.0-----
022011:48 pm NW 9 14----29.74- 48.2-----
022011:42 pm NW 10 14----29.74- 48.2-----
022011:36 pmWNW 9 16----29.74- 48.4-----
022011:30 pmWNW 13 17----29.74- 48.6-----
022011:24 pm NW 10 15----29.75- 48.7-----
022011:18 pmWNW 7 10----29.75- 48.6-----
022011:12 pm NW 7 10----29.75- 48.6-----
022011:06 pm NW 5 7----29.75- 48.6-----
022011:00 pm NW 6 7----29.75-0.01 48.7-----
022010:54 pm NW 7 11----29.75- 48.7-----
022010:48 pm NW 10 15----29.75- 48.7-----
022010:42 pm NW 9 15----29.75- 48.7-----
022010:36 pm NW 10 14----29.76- 48.7-----
022010:30 pmWNW 9 12----29.76- 48.6-----
022010:24 pmWNW 10 14----29.76- 48.7-----
022010:18 pm NW 10 13----29.76- 48.6-----
022010:12 pm NW 8 10----29.76- 48.6-----
022010:06 pm NW 7 10----29.76- 48.6-----
022010:00 pm NW 10 12----29.76-0.01 48.9-----
0220 9:54 pm NW 9 12----29.77- 48.7-----
0220 9:48 pm NW 11 14----29.76- 48.9-----
0220 9:42 pm NW 11 17----29.76- 48.7-----
0220 9:36 pm NW 7 16----29.76- 48.7-----
0220 9:30 pm NW 12 18----29.76- 48.9-----
0220 9:24 pm NW 11 15----29.76- 49.1-----
0220 9:18 pm NW 9 13----29.77- 49.1-----
0220 9:12 pmWNW 10 14----29.76- 49.1-----
0220 9:06 pmWNW 11 17----29.77- 49.1-----
0220 9:00 pmWNW 12 16----29.77-0.01 49.3-----
0220 8:54 pm NW 12 16----29.77- 49.3-----
0220 8:48 pmWNW 9 12----29.77- 49.3-----
0220 8:42 pm NW 9 12----29.77- 49.6-----
0220 8:36 pm NW 7 12----29.78- 49.6-----
0220 8:30 pm NW 8 12----29.77- 49.6-----
0220 8:24 pmNNW 8 16----29.77- 49.6-----
0220 8:18 pm NW 9 14----29.77- 49.8-----
0220 8:12 pm NW 12 19----29.77- 49.8-----
0220 8:06 pm NW 11 17----29.78- 49.8-----
0220 8:00 pm NW 12 19----29.77-0.01 50.0-----
0220 7:54 pm NW 17 22----29.76- 50.0-----
0220 7:48 pm NW 12 17----29.77- 50.2-----
0220 7:42 pm NW 13 18----29.77- 50.2-----
0220 7:36 pm NW 9 15----29.78- 50.4-----
0220 7:30 pmWNW 12 16----29.77- 50.4-----
0220 7:18 pmWNW 13 19----29.77- 50.5-----
0220 7:12 pmWNW 12 19----29.77- 50.5-----
0220 7:06 pm NW 13 19----29.77- 50.5-----
0220 7:00 pmWNW 12 20----29.77-0.03 50.7-----
0220 6:54 pmWNW 12 18----29.78- 50.7-----
0220 6:48 pm NW 14 20----29.77- 50.9-----
0220 6:42 pmWNW 11 18----29.78- 50.9-----
0220 6:36 pm NW 15 22----29.77- 50.9-----
0220 6:30 pmWNW 10 23----29.78- 50.9-----
0220 6:24 pmWNW 12 19----29.78- 50.9-----
0220 6:18 pmWNW 12 18----29.77- 50.9-----
0220 6:12 pmWNW 12 20----29.78- 51.1-----
0220 6:06 pmWNW 13 19----29.78- 51.3-----
0220 6:00 pmWNW 13 20----29.78-0.04 51.6-----
0220 5:54 pmWNW 15 21----29.78- 51.8-----
0220 5:48 pmWNW 15 22----29.78- 52.0-----
0220 5:42 pmWNW 17 24----29.78- 52.3-----
0220 5:36 pmWNW 14 21----29.78- 52.7-----
0220 5:30 pmWNW 13 20----29.78- 53.1-----
0220 5:24 pmWNW 14 19----29.78- 53.4-----
0220 5:18 pmWNW 14 19----29.78- 53.8-----
0220 5:12 pmWNW 17 23----29.78- 54.0-----
0220 5:06 pmWNW 15 22----29.78- 54.3-----
0220 5:00 pmWNW 16 20----29.78-0.07 54.3-----
0220 4:54 pmWNW 13 21----29.78- 54.5-----
0220 4:48 pmWNW 14 18----29.78- 54.7-----
0220 4:36 pmWNW 14 18----29.79- 54.9-----
0220 4:30 pmWNW 12 17----29.79- 55.2-----
0220 4:24 pmWNW 12 17----29.80- 55.2-----
0220 4:18 pmWNW 13 17----29.80- 55.2-----
0220 4:12 pmWNW 13 19----29.80- 55.2-----
0220 4:06 pmWNW 13 17----29.80- 55.4-----
0220 4:00 pmWNW 12 19----29.80-0.08 55.6-----
0220 3:54 pmWNW 15 19----29.80- 55.2-----
0220 3:48 pmWNW 14 19----29.80- 55.4-----
0220 3:42 pmWNW 14 18----29.80- 55.2-----
0220 3:36 pmWNW 14 20----29.81- 55.4-----
0220 3:30 pmWNW 12 20----29.81- 55.6-----
0220 3:24 pmWNW 16 19----29.81- 55.4-----
0220 3:18 pmWNW 14 18----29.81- 55.6-----
0220 3:12 pmWNW 14 19----29.81- 55.8-----
0220 3:06 pmWNW 16 19----29.82- 55.6-----
0220 3:00 pmWNW 12 17----29.82-0.10 56.1-----
0220 2:54 pmWNW 13 17----29.82- 55.9-----

Description of Measurements

Links which are specific to this station are listed below:

Real Time Data in tabular form for the last forty-five days.

Historical Data & Climatic Summaries for quality controlled data for the current month, previous months, and previous years.